ATLAS 5 CENTAUR DEB, 44646

Orbit data source: Space-Track

ATLAS 5 CENTAUR DEB, 44646 is space debris in HEO originally from a launch on Wed, 17 Oct 2018 UTC launched from the Air Force Eastern Test Range (AFETR). Debris objects in space refer to the collection of defunct objects orbiting the Earth. Examples of debris include non-operational satellites, rocket bodies, and fragments generated from explosions, collisions, or faulty payload assembly.

Loading next visibility...
Identifier
44646, 2018-079G
Orbit
HEO
Country
Flag of USUS
Related business
Flag of USUnited Launch Alliance/Lockheed Martin (US)
Manufacturer
ULA Decatur
Mission
Spacecraft
Bus & Motor
Unknown
Mass
Unknown
Launch date (UTC)
2018-10-17 (8 years ago)
Launch vehicle
Unknown
Launch site
Air Force Eastern Test Range (AFETR)
Object type
Payload
Rocket body
Debris
Shape & HBR
Unknown shape, 1.1 m
Radar Cross Section
Medium (>0.1 m² and <1 m²)

Expand to show TLE details & history
Last TLE update: 2 days ago

TLE from 2 days ago
0 ATLAS 5 CENTAUR DEB
1 44646U 18079G   26171.11925841 -.00000122  00000-0  00000+0 0  9992
2 44646  13.7819  15.8665 4740762 349.5722   3.3074  1.86003096 52094
Epoch: 2026-06-20T02:51Z
TLE epoch observation values (Epoch: 2026-06-20T02:51:43.926Z)
Latitude
0.00012°
Longitude
64.59372°
Altitude
8,416.168 km
Speed
6.294 km/s
True Right ascension
01h 03m 27s
True Declination
0° 00' 00"
Sunlit
Object was in daylight at epoch
Visualization orbit readout
Latitude
Unknown
Longitude
Unknown
Altitude
Unknown
Speed
Unknown
Apparent Right ascension
Unknown
Apparent Declination
Unknown
Sunlit
N/A
Visualization observer readout
Local Sidereal Time
21:36:03
Azimuth
Unknown
Elevation
Unknown
Doppler factor
Unknown
Orbital elements
Apogee altitude
34,794.447 km
Perigee altitude
8,311.498 km
Semi-major axis
27,931.11 km
Eccentricity
0.47408
Inclination
13.7819°
RAAN
15.8665°
Arg. of periapsis
349.5722°
True anomaly
10.49058°
Mean anomaly
3.3074°
Eccentric anomaly
6.27743°
Mean motion
0.46495 °/min
Orbital period
774.27 mins
BSTAR
0
Loading maneuver chart data...
Computing Atmospheric mass density...

Documentation

Showing up to 5 results
|